QPF
0.00 0.00 0.01 0.01 0.00 0.00 0.01 0.01 0.01 0.00 0.00 0.00 0.00 0.01 0.01 0.01 0.01 0.01 0.01 0.01 0.01 0.01 0.01 0.01 0.01 0.01 0.02 0.01 0.01 0.01 0.01 0.01 0.01 0.02 0.03 0.04 0.05 0.05 0.06 0.07 0.08 0.09 0.08 0.06
0.00 0.00 0.00 0.01 0.00 0.00 0.00 0.00 0.00 0.00 0.00 0.01 0.01 0.01 0.01 0.01 0.01 0.01 0.01 0.02 0.02 0.01 0.01 0.01 0.01 0.01 0.02 0.02 0.02 0.01 0.01 0.01 0.01 0.01 0.02 0.03 0.04 0.04 0.04 0.06 0.07 0.08 0.07 0.06
0.00 0.00 0.00 0.00 0.00 0.00 0.00 0.00 0.00 0.00 0.00 0.01 0.01 0.01 0.01 0.01 0.01 0.01 0.02 0.02 0.02 0.02 0.01 0.01 0.01 0.01 0.01 0.02 0.02 0.02 0.01 0.01 0.01 0.01 0.01 0.02 0.03 0.03 0.03 0.04 0.04 0.05 0.05 0.04
0.00 0.00 0.00 0.00 0.00 0.00 0.00 0.00 0.00 0.00 0.00 0.01 0.01 0.01 0.01 0.01 0.01 0.01 0.02 0.02 0.03 0.03 0.02 0.02 0.01 0.01 0.01 0.01 0.02 0.02 0.01 0.01 0.01 0.01 0.01 0.01 0.02 0.02 0.02 0.04 0.03 0.04 0.05 0.04
0.01 0.00 0.00 0.00 0.00 0.00 0.00 0.00 0.00 0.00 0.00 0.00 0.00 0.01 0.01 0.01 0.01 0.01 0.02 0.02 0.03 0.03 0.03 0.02 0.02 0.02 0.01 0.01 0.01 0.01 0.01 0.01 0.01 0.01 0.01 0.01 0.01 0.01 0.02 0.03 0.03 0.03 0.04 0.04
0.01 0.01 0.00 0.00 0.00 0.00 0.00 0.00 0.00 0.00 0.00 0.00 0.00 0.00 0.00 0.00 0.01 0.01 0.01 0.02 0.02 0.02 0.02 0.02 0.02 0.02 0.02 0.01 0.01 0.01 0.01 0.01 0.01 0.01 0.02 0.02 0.02 0.01 0.02 0.02 0.03 0.03 0.03 0.04
0.01 0.01 0.00 0.00 0.00 0.00 0.00 0.01 0.00 0.00 0.00 0.00 0.00 0.00 0.00 0.01 0.01 0.01 0.01 0.01 0.01 0.02 0.02 0.03 0.02 0.02 0.03 0.02 0.02 0.02 0.02 0.02 0.01 0.02 0.02 0.02 0.02 0.02 0.02 0.02 0.02 0.03 0.03 0.04
0.00 0.01 0.00 0.00 0.00 0.00 0.01 0.00 0.00 0.00 0.00 0.00 0.00 0.00 0.00 0.00 0.00 0.01 0.01 0.01 0.01 0.01 0.02 0.02 0.02 0.03 0.03 0.04 0.04 0.04 0.05 0.04 0.02 0.02 0.02 0.02 0.03 0.02 0.02 0.02 0.02 0.02 0.03 0.03
0.00 0.00 0.00 0.00 0.00 0.00 0.00 0.00 0.00 0.00 0.00 0.00 0.00 0.00 0.00 0.00 0.00 0.00 0.00 0.01 0.01 0.01 0.01 0.02 0.02 0.03 0.04 0.04 0.05 0.05 0.06 0.05 0.03 0.02 0.02 0.03 0.03 0.02 0.02 0.02 0.03 0.03 0.03 0.03
0.00 0.00 0.00 0.00 0.00 0.00 0.00 0.00 0.00 0.00 0.00 0.00 0.00 0.00 0.00 0.00 0.00 0.00 0.00 0.00 0.01 0.01 0.01 0.01 0.02 0.03 0.04 0.04 0.05 0.06 0.06 0.06 0.04 0.03 0.03 0.02 0.03 0.03 0.03 0.03 0.04 0.04 0.04 0.04
0.00 0.00 0.00 0.00 0.00 0.00 0.00 0.00 0.00 0.00 0.00 0.00 0.00 0.00 0.00 0.00 0.00 0.00 0.01 0.01 0.01 0.01 0.01 0.01 0.01 0.02 0.02 0.03 0.04 0.05 0.05 0.05 0.05 0.04 0.03 0.03 0.03 0.04 0.04 0.04 0.05 0.06 0.05 0.05
0.00 0.00 0.00 0.00 0.00 0.00 0.00 0.00 0.00 0.00 0.00 0.00 0.00 0.00 0.00 0.00 0.01 0.01 0.01 0.00 0.00 0.01 0.01 0.01 0.01 0.01 0.01 0.02 0.03 0.04 0.04 0.04 0.05 0.05 0.05 0.05 0.04 0.04 0.04 0.05 0.05 0.06 0.06 0.05
0.00 0.00 0.00 0.00 0.00 0.01 0.00 0.00 0.00 0.00 0.00 0.00 0.00 0.00 0.00 0.01 0.01 0.00 0.00 0.00 0.01 0.01 0.01 0.01 0.01 0.01 0.01 0.01 0.02 0.03 0.04 0.04 0.04 0.05 0.05 0.05 0.05 0.06 0.05 0.04 0.04 0.05 0.06 0.05
0.00 0.01 0.01 0.01 0.00 0.00 0.00 0.00 0.00 0.00 0.00 0.00 0.00 0.00 0.01 0.00 0.00 0.00 0.00 0.00 0.01 0.01 0.01 0.01 0.01 0.01 0.01 0.01 0.02 0.02 0.03 0.03 0.03 0.03 0.04 0.04 0.05 0.05 0.05 0.05 0.04 0.04 0.05 0.06
0.01 0.01 0.01 0.00 0.00 0.00 0.00 0.00 0.00 0.00 0.00 0.00 0.00 0.00 0.00 0.00 0.00 0.00 0.00 0.00 0.00 0.00 0.00 0.01 0.01 0.01 0.01 0.01 0.02 0.02 0.03 0.03 0.03 0.03 0.03 0.04 0.04 0.04 0.04 0.04 0.04 0.04 0.04 0.05
0.01 0.01 0.00 0.00 0.00 0.00 0.00 0.00 0.00 0.00 0.00 0.00 0.00 0.00 0.00 0.00 0.00 0.00 0.00 0.00 0.01 0.01 0.01 0.01 0.01 0.00 0.01 0.01 0.01 0.02 0.02 0.03 0.03 0.04 0.03 0.03 0.03 0.04 0.04 0.04 0.04 0.04 0.04 0.04
0.01 0.01 0.00 0.00 0.00 0.00 0.00 0.00 0.00 0.00 0.00 0.00 0.00 0.00 0.00 0.00 0.00 0.00 0.00 0.00 0.01 0.01 0.01 0.01 0.01 0.01 0.01 0.01 0.01 0.02 0.02 0.02 0.02 0.03 0.03 0.03 0.03 0.04 0.05 0.05 0.04 0.04 0.03 0.04
0.00 0.00 0.00 0.00 0.00 0.00 0.00 0.00 0.00 0.00 0.00 0.00 0.00 0.00 0.00 0.00 0.00 0.00 0.00 0.00 0.00 0.00 0.00 0.01 0.01 0.01 0.01 0.01 0.02 0.02 0.02 0.02 0.02 0.02 0.02 0.03 0.03 0.04 0.04 0.05 0.05 0.04 0.03 0.03
0.00 0.00 0.00 0.00 0.00 0.00 0.00 0.00 0.00 0.00 0.00 0.00 0.00 0.00 0.00 0.00 0.00 0.00 0.00 0.00 0.00 0.00 0.00 0.01 0.01 0.01 0.01 0.01 0.02 0.02 0.02 0.02 0.02 0.02 0.02 0.03 0.03 0.03 0.03 0.03 0.04 0.05 0.04 0.04
0.00 0.00 0.00 0.00 0.00 0.00 0.00 0.00 0.00 0.00 0.00 0.00 0.00 0.00 0.00 0.00 0.00 0.00 0.00 0.00 0.01 0.01 0.01 0.01 0.01 0.01 0.01 0.01 0.02 0.02 0.02 0.02 0.02 0.02 0.02 0.03 0.03 0.03 0.03 0.03 0.04 0.04 0.05 0.05
0.00 0.00 0.00 0.00 0.00 0.00 0.00 0.00 0.00 0.00 0.00 0.00 0.00 0.00 0.00 0.00 0.00 0.00 0.00 0.00 0.00 0.01 0.01 0.01 0.01 0.01 0.01 0.02 0.02 0.02 0.02 0.02 0.02 0.02 0.02 0.02 0.03 0.03 0.03 0.03 0.03 0.03 0.03 0.04
0.00 0.00 0.00 0.00 0.00 0.00 0.00 0.00 0.00 0.00 0.00 0.00 0.00 0.00 0.00 0.00 0.00 0.00 0.00 0.01 0.00 0.01 0.01 0.01 0.01 0.01 0.02 0.03 0.02 0.02 0.02 0.02 0.02 0.02 0.02 0.02 0.02 0.02 0.02 0.03 0.03 0.03 0.03 0.03
0.00 0.00 0.00 0.00 0.00 0.00 0.00 0.00 0.00 0.00 0.00 0.00 0.00 0.00 0.00 0.00 0.01 0.01 0.01 0.00 0.01 0.01 0.01 0.01 0.02 0.02 0.03 0.02 0.01 0.01 0.02 0.02 0.02 0.02 0.02 0.02 0.02 0.02 0.02 0.03 0.03 0.03 0.03 0.03
0.00 0.00 0.00 0.00 0.00 0.00 0.00 0.00 0.00 0.00 0.00 0.00 0.00 0.00 0.00 0.00 0.00 0.00 0.01 0.01 0.01 0.01 0.01 0.01 0.02 0.02 0.02 0.01 0.01 0.01 0.01 0.02 0.02 0.02 0.03 0.03 0.02 0.02 0.03 0.03 0.03 0.02 0.02 0.03
0.00 0.00 0.00 0.00 0.00 0.00 0.00 0.00 0.00 0.00 0.00 0.00 0.00 0.00 0.00 0.01 0.01 0.01 0.01 0.01 0.01 0.01 0.01 0.01 0.01 0.01 0.01 0.01 0.01 0.01 0.01 0.02 0.02 0.03 0.03 0.03 0.03 0.03 0.03 0.03 0.03 0.02 0.02 0.03
0.00 0.00 0.00 0.00 0.00 0.00 0.00 0.00 0.00 0.00 0.00 0.00 0.00 0.00 0.00 0.00 0.00 0.00 0.01 0.01 0.01 0.01 0.01 0.01 0.01 0.01 0.01 0.01 0.01 0.01 0.01 0.02 0.02 0.02 0.02 0.03 0.03 0.03 0.03 0.03 0.02 0.02 0.02 0.03
0.00 0.00 0.00 0.00 0.00 0.00 0.00 0.00 0.00 0.00 0.00 0.00 0.00 0.00 0.00 0.00 0.00 0.00 0.00 0.00 0.01 0.01 0.01 0.01 0.01 0.01 0.01 0.01 0.01 0.01 0.01 0.01 0.02 0.02 0.02 0.02 0.03 0.03 0.03 0.03 0.03 0.02 0.02 0.02
MSLP
1025.99 1025.56 1025.05 1024.49 1023.93 1023.42 1022.99 1022.66 1022.46 1022.37 1022.40 1022.53 1022.76 1023.06 1023.42 1023.83 1024.29 1024.79 1025.32 1025.90 1026.51 1027.16 1027.83 1028.51 1029.17 1029.80 1030.38 1030.86 1031.25 1031.54 1031.70 1031.77 1031.74 1031.63 1031.46 1031.25 1031.01 1030.75 1030.47 1030.16 1029.83 1029.46 1029.04 1028.58
1026.27 1025.68 1025.00 1024.29 1023.59 1022.98 1022.49 1022.15 1021.96 1021.91 1021.99 1022.18 1022.43 1022.74 1023.08 1023.45 1023.84 1024.27 1024.74 1025.26 1025.85 1026.49 1027.18 1027.90 1028.61 1029.29 1029.91 1030.44 1030.86 1031.15 1031.32 1031.38 1031.34 1031.22 1031.05 1030.83 1030.59 1030.32 1030.03 1029.72 1029.37 1028.99 1028.56 1028.10
1026.34 1025.62 1024.81 1023.96 1023.16 1022.47 1021.94 1021.59 1021.43 1021.43 1021.58 1021.82 1022.13 1022.46 1022.80 1023.15 1023.50 1023.88 1024.30 1024.79 1025.35 1025.99 1026.69 1027.43 1028.17 1028.88 1029.53 1030.07 1030.49 1030.77 1030.93 1030.97 1030.92 1030.78 1030.60 1030.38 1030.12 1029.85 1029.56 1029.23 1028.87 1028.48 1028.04 1027.56
1026.10 1025.30 1024.40 1023.48 1022.62 1021.90 1021.37 1021.05 1020.94 1021.01 1021.23 1021.55 1021.91 1022.29 1022.65 1023.00 1023.33 1023.68 1024.08 1024.53 1025.07 1025.70 1026.39 1027.12 1027.86 1028.57 1029.21 1029.73 1030.12 1030.38 1030.51 1030.52 1030.44 1030.29 1030.10 1029.87 1029.62 1029.34 1029.04 1028.71 1028.34 1027.93 1027.48 1026.99
1025.53 1024.70 1023.78 1022.86 1022.02 1021.33 1020.85 1020.60 1020.57 1020.73 1021.03 1021.43 1021.85 1022.28 1022.66 1023.02 1023.35 1023.69 1024.05 1024.48 1024.99 1025.59 1026.25 1026.96 1027.67 1028.34 1028.93 1029.40 1029.75 1029.96 1030.05 1030.02 1029.92 1029.75 1029.55 1029.32 1029.07 1028.80 1028.50 1028.16 1027.79 1027.37 1026.90 1026.41
1024.68 1023.90 1023.05 1022.20 1021.45 1020.86 1020.48 1020.33 1020.40 1020.65 1021.04 1021.50 1021.98 1022.43 1022.84 1023.20 1023.52 1023.84 1024.18 1024.58 1025.05 1025.60 1026.21 1026.87 1027.52 1028.12 1028.65 1029.06 1029.34 1029.49 1029.53 1029.47 1029.34 1029.16 1028.96 1028.73 1028.49 1028.23 1027.94 1027.61 1027.22 1026.80 1026.33 1025.82
1023.71 1023.04 1022.33 1021.63 1021.03 1020.59 1020.35 1020.32 1020.49 1020.83 1021.27 1021.77 1022.27 1022.73 1023.13 1023.47 1023.77 1024.06 1024.36 1024.72 1025.14 1025.63 1026.18 1026.77 1027.34 1027.87 1028.31 1028.65 1028.86 1028.96 1028.95 1028.87 1028.72 1028.54 1028.34 1028.13 1027.90 1027.65 1027.37 1027.04 1026.66 1026.23 1025.75 1025.24
1022.79 1022.29 1021.77 1021.27 1020.87 1020.61 1020.52 1020.61 1020.87 1021.26 1021.72 1022.22 1022.70 1023.12 1023.48 1023.77 1024.02 1024.25 1024.50 1024.80 1025.17 1025.60 1026.08 1026.58 1027.07 1027.52 1027.89 1028.15 1028.31 1028.36 1028.32 1028.21 1028.06 1027.88 1027.70 1027.50 1027.29 1027.06 1026.78 1026.46 1026.08 1025.65 1025.16 1024.65
1022.07 1021.78 1021.48 1021.21 1021.02 1020.94 1020.99 1021.18 1021.50 1021.89 1022.33 1022.78 1023.18 1023.52 1023.80 1024.01 1024.18 1024.34 1024.53 1024.76 1025.06 1025.42 1025.83 1026.26 1026.68 1027.05 1027.35 1027.55 1027.66 1027.68 1027.62 1027.51 1027.36 1027.20 1027.03 1026.86 1026.66 1026.44 1026.17 1025.85 1025.47 1025.04 1024.55 1024.04
1021.66 1021.59 1021.51 1021.46 1021.46 1021.54 1021.72 1021.97 1022.30 1022.66 1023.03 1023.37 1023.66 1023.88 1024.04 1024.14 1024.22 1024.30 1024.41 1024.58 1024.81 1025.10 1025.43 1025.79 1026.14 1026.45 1026.69 1026.85 1026.93 1026.93 1026.86 1026.76 1026.63 1026.49 1026.34 1026.18 1026.00 1025.79 1025.52 1025.20 1024.82 1024.38 1023.90 1023.39
1021.57 1021.69 1021.82 1021.96 1022.12 1022.33 1022.58 1022.86 1023.16 1023.45 1023.72 1023.93 1024.08 1024.16 1024.18 1024.17 1024.14 1024.13 1024.16 1024.25 1024.42 1024.64 1024.91 1025.21 1025.49 1025.74 1025.94 1026.07 1026.12 1026.12 1026.06 1025.98 1025.87 1025.75 1025.62 1025.48 1025.30 1025.09 1024.83 1024.50 1024.12 1023.68 1023.20 1022.70
1021.73 1022.01 1022.29 1022.58 1022.87 1023.16 1023.45 1023.72 1023.97 1024.17 1024.31 1024.39 1024.39 1024.34 1024.23 1024.10 1023.97 1023.88 1023.84 1023.86 1023.96 1024.13 1024.34 1024.56 1024.79 1024.99 1025.14 1025.24 1025.28 1025.27 1025.23 1025.16 1025.07 1024.97 1024.86 1024.73 1024.56 1024.35 1024.08 1023.75 1023.36 1022.92 1022.45 1021.97
1022.01 1022.39 1022.78 1023.17 1023.54 1023.88 1024.18 1024.43 1024.62 1024.73 1024.77 1024.72 1024.61 1024.43 1024.22 1024.00 1023.80 1023.63 1023.53 1023.50 1023.53 1023.63 1023.77 1023.94 1024.10 1024.24 1024.35 1024.41 1024.43 1024.42 1024.38 1024.33 1024.26 1024.18 1024.08 1023.95 1023.79 1023.57 1023.30 1022.96 1022.57 1022.14 1021.68 1021.23
1022.29 1022.73 1023.19 1023.63 1024.04 1024.40 1024.70 1024.93 1025.06 1025.11 1025.06 1024.94 1024.73 1024.48 1024.20 1023.93 1023.67 1023.46 1023.30 1023.22 1023.20 1023.23 1023.30 1023.39 1023.48 1023.55 1023.61 1023.63 1023.62 1023.60 1023.56 1023.51 1023.45 1023.38 1023.30 1023.18 1023.02 1022.80 1022.52 1022.18 1021.80 1021.37 1020.93 1020.50
1022.49 1022.95 1023.43 1023.90 1024.33 1024.70 1025.00 1025.20 1025.31 1025.32 1025.23 1025.06 1024.82 1024.54 1024.23 1023.93 1023.65 1023.41 1023.22 1023.09 1023.01 1022.97 1022.96 1022.97 1022.98 1022.98 1022.97 1022.94 1022.90 1022.85 1022.80 1022.75 1022.70 1022.64 1022.56 1022.44 1022.28 1022.07 1021.79 1021.46 1021.07 1020.66 1020.24 1019.83
1022.60 1023.06 1023.54 1024.01 1024.45 1024.82 1025.11 1025.32 1025.42 1025.42 1025.33 1025.16 1024.92 1024.64 1024.34 1024.04 1023.76 1023.51 1023.29 1023.12 1022.99 1022.88 1022.79 1022.72 1022.64 1022.56 1022.47 1022.38 1022.30 1022.22 1022.15 1022.09 1022.03 1021.97 1021.89 1021.78 1021.62 1021.41 1021.14 1020.81 1020.44 1020.04 1019.64 1019.25
1022.67 1023.12 1023.59 1024.06 1024.49 1024.87 1025.16 1025.37 1025.48 1025.50 1025.43 1025.28 1025.07 1024.82 1024.55 1024.27 1024.00 1023.75 1023.52 1023.31 1023.13 1022.95 1022.79 1022.63 1022.47 1022.30 1022.15 1022.00 1021.86 1021.74 1021.64 1021.56 1021.49 1021.42 1021.34 1021.23 1021.07 1020.86 1020.59 1020.27 1019.91 1019.52 1019.14 1018.77
1022.82 1023.26 1023.72 1024.18 1024.60 1024.97 1025.27 1025.48 1025.61 1025.65 1025.60 1025.49 1025.32 1025.11 1024.87 1024.62 1024.37 1024.12 1023.88 1023.64 1023.41 1023.17 1022.94 1022.70 1022.46 1022.23 1022.00 1021.79 1021.60 1021.44 1021.30 1021.20 1021.10 1021.02 1020.92 1020.80 1020.63 1020.42 1020.15 1019.83 1019.48 1019.11 1018.73 1018.38
1023.17 1023.61 1024.06 1024.50 1024.91 1025.26 1025.55 1025.75 1025.88 1025.93 1025.91 1025.82 1025.68 1025.50 1025.29 1025.07 1024.83 1024.58 1024.33 1024.07 1023.80 1023.51 1023.22 1022.92 1022.62 1022.32 1022.03 1021.76 1021.53 1021.32 1021.14 1020.99 1020.87 1020.75 1020.63 1020.48 1020.30 1020.07 1019.80 1019.48 1019.14 1018.77 1018.40 1018.06
1023.79 1024.23 1024.67 1025.09 1025.47 1025.79 1026.05 1026.23 1026.34 1026.38 1026.35 1026.28 1026.15 1025.99 1025.80 1025.58 1025.35 1025.10 1024.84 1024.56 1024.26 1023.94 1023.61 1023.26 1022.91 1022.56 1022.22 1021.90 1021.61 1021.35 1021.13 1020.93 1020.76 1020.60 1020.43 1020.25 1020.04 1019.79 1019.50 1019.18 1018.83 1018.47 1018.11 1017.77
1024.70 1025.14 1025.56 1025.95 1026.28 1026.55 1026.76 1026.90 1026.96 1026.97 1026.93 1026.84 1026.70 1026.54 1026.35 1026.14 1025.91 1025.66 1025.38 1025.09 1024.76 1024.42 1024.05 1023.67 1023.28 1022.89 1022.51 1022.14 1021.80 1021.49 1021.21 1020.96 1020.73 1020.51 1020.29 1020.06 1019.81 1019.54 1019.23 1018.90 1018.55 1018.18 1017.83 1017.49
1025.85 1026.28 1026.67 1027.01 1027.28 1027.48 1027.62 1027.69 1027.70 1027.66 1027.58 1027.46 1027.30 1027.13 1026.93 1026.71 1026.47 1026.21 1025.93 1025.62 1025.28 1024.91 1024.52 1024.12 1023.70 1023.27 1022.85 1022.44 1022.05 1021.69 1021.35 1021.04 1020.74 1020.46 1020.18 1019.90 1019.60 1019.29 1018.96 1018.61 1018.26 1017.89 1017.54 1017.20
1027.12 1027.53 1027.87 1028.14 1028.34 1028.47 1028.52 1028.52 1028.47 1028.37 1028.24 1028.08 1027.90 1027.71 1027.49 1027.26 1027.01 1026.74 1026.44 1026.11 1025.76 1025.38 1024.97 1024.54 1024.09 1023.64 1023.18 1022.73 1022.30 1021.88 1021.48 1021.11 1020.75 1020.40 1020.07 1019.73 1019.39 1019.05 1018.69 1018.33 1017.96 1017.59 1017.23 1016.89
1028.41 1028.77 1029.05 1029.24 1029.36 1029.40 1029.38 1029.30 1029.19 1029.04 1028.86 1028.67 1028.46 1028.24 1028.01 1027.76 1027.50 1027.21 1026.89 1026.55 1026.18 1025.77 1025.34 1024.89 1024.42 1023.93 1023.44 1022.96 1022.48 1022.02 1021.57 1021.15 1020.73 1020.34 1019.95 1019.56 1019.18 1018.80 1018.42 1018.04 1017.66 1017.28 1016.91 1016.56
1029.58 1029.88 1030.08 1030.20 1030.23 1030.20 1030.10 1029.96 1029.79 1029.60 1029.39 1029.16 1028.93 1028.70 1028.45 1028.18 1027.90 1027.59 1027.25 1026.89 1026.49 1026.06 1025.60 1025.12 1024.62 1024.11 1023.60 1023.08 1022.58 1022.08 1021.60 1021.14 1020.68 1020.25 1019.82 1019.40 1018.98 1018.58 1018.17 1017.76 1017.36 1016.96 1016.57 1016.20
1030.60 1030.81 1030.94 1030.97 1030.93 1030.82 1030.67 1030.48 1030.26 1030.03 1029.80 1029.56 1029.31 1029.06 1028.79 1028.50 1028.20 1027.86 1027.50 1027.10 1026.66 1026.20 1025.71 1025.21 1024.68 1024.15 1023.62 1023.09 1022.57 1022.06 1021.56 1021.08 1020.60 1020.14 1019.69 1019.24 1018.80 1018.36 1017.92 1017.48 1017.05 1016.61 1016.19 1015.77
1031.42 1031.56 1031.60 1031.56 1031.45 1031.29 1031.08 1030.85 1030.61 1030.36 1030.10 1029.85 1029.59 1029.32 1029.03 1028.72 1028.38 1028.01 1027.61 1027.17 1026.70 1026.20 1025.69 1025.15 1024.61 1024.07 1023.53 1023.00 1022.48 1021.97 1021.47 1020.98 1020.50 1020.03 1019.56 1019.09 1018.61 1018.13 1017.65 1017.17 1016.68 1016.19 1015.71 1015.23
Thickness
5421 5413 5406 5404 5401 5394 5386 5390 5389 5393 5379 5375 5361 5350 5343 5336 5331 5327 5324 5322 5319 5317 5316 5315 5315 5316 5317 5317 5318 5320 5322 5325 5328 5331 5336 5340 5346 5351 5356 5361 5366 5372 5378 5383
5403 5399 5392 5390 5392 5387 5380 5375 5373 5370 5366 5360 5347 5338 5332 5327 5321 5317 5314 5311 5308 5306 5304 5304 5303 5304 5305 5306 5307 5309 5311 5313 5316 5319 5323 5328 5333 5338 5343 5348 5353 5358 5364 5369
5407 5387 5382 5394 5389 5378 5371 5363 5359 5360 5357 5343 5334 5328 5322 5316 5311 5306 5302 5299 5297 5295 5293 5292 5291 5291 5293 5294 5296 5298 5300 5302 5305 5308 5312 5316 5321 5325 5330 5335 5340 5345 5351 5356
5388 5378 5380 5395 5367 5364 5357 5350 5343 5340 5335 5328 5321 5316 5309 5304 5299 5295 5291 5287 5285 5283 5282 5281 5280 5280 5281 5283 5285 5287 5289 5291 5294 5297 5301 5305 5309 5313 5318 5323 5328 5334 5340 5345
5374 5379 5388 5376 5358 5347 5342 5342 5334 5327 5321 5316 5308 5304 5305 5296 5288 5284 5280 5276 5273 5271 5270 5270 5269 5269 5270 5273 5274 5276 5278 5280 5282 5285 5289 5293 5297 5302 5306 5311 5317 5322 5328 5334
5360 5364 5377 5375 5344 5333 5330 5335 5327 5315 5310 5303 5296 5302 5304 5287 5278 5273 5269 5266 5263 5261 5260 5259 5259 5258 5260 5262 5263 5265 5267 5269 5272 5275 5278 5282 5286 5290 5295 5300 5305 5311 5317 5322
5353 5355 5367 5347 5328 5323 5330 5337 5316 5307 5300 5292 5288 5288 5282 5274 5268 5264 5260 5257 5253 5251 5250 5249 5248 5248 5250 5251 5252 5254 5256 5260 5263 5265 5268 5272 5276 5280 5284 5289 5295 5300 5306 5312
5344 5343 5353 5328 5320 5322 5327 5312 5303 5297 5290 5283 5278 5272 5267 5263 5259 5255 5251 5247 5244 5242 5241 5240 5239 5239 5240 5241 5243 5244 5247 5251 5254 5257 5259 5263 5267 5271 5275 5279 5285 5290 5296 5302
5342 5348 5333 5319 5317 5311 5303 5298 5292 5287 5280 5272 5267 5263 5258 5254 5250 5245 5242 5238 5235 5233 5232 5231 5230 5229 5230 5232 5233 5235 5239 5242 5245 5248 5251 5254 5258 5262 5265 5270 5275 5281 5286 5292
5322 5328 5318 5308 5302 5296 5290 5285 5281 5274 5268 5262 5257 5253 5248 5244 5240 5237 5232 5229 5226 5224 5223 5222 5221 5220 5220 5222 5224 5226 5230 5233 5236 5240 5243 5246 5249 5252 5256 5260 5265 5270 5276 5282
5316 5317 5307 5302 5296 5289 5281 5274 5269 5263 5258 5252 5247 5243 5238 5234 5231 5227 5223 5220 5216 5214 5213 5212 5212 5212 5212 5213 5215 5217 5221 5224 5227 5231 5234 5238 5241 5243 5247 5251 5254 5259 5266 5271
5324 5313 5303 5300 5289 5279 5271 5265 5259 5253 5248 5243 5237 5233 5229 5224 5221 5217 5213 5210 5208 5205 5204 5204 5203 5203 5204 5205 5206 5208 5212 5215 5218 5222 5226 5229 5233 5238 5240 5243 5247 5251 5255 5261
5301 5293 5288 5283 5275 5268 5262 5255 5249 5243 5238 5233 5228 5223 5218 5215 5211 5207 5204 5201 5199 5196 5196 5195 5195 5196 5197 5197 5198 5200 5202 5205 5209 5212 5216 5219 5223 5227 5233 5238 5241 5244 5248 5253
5284 5279 5276 5271 5265 5257 5250 5244 5238 5232 5227 5222 5217 5213 5209 5205 5202 5199 5196 5193 5191 5189 5188 5188 5188 5189 5190 5191 5192 5193 5195 5198 5200 5203 5206 5210 5213 5217 5221 5227 5232 5237 5240 5244
5274 5269 5265 5258 5251 5245 5239 5233 5228 5223 5218 5213 5208 5204 5200 5197 5194 5191 5188 5186 5184 5182 5182 5182 5182 5183 5183 5184 5185 5187 5189 5191 5193 5195 5198 5201 5204 5208 5212 5216 5220 5225 5230 5236
5265 5258 5252 5246 5241 5235 5229 5224 5219 5215 5209 5204 5200 5196 5192 5188 5185 5183 5180 5178 5176 5177 5176 5175 5176 5177 5177 5178 5179 5181 5182 5183 5185 5188 5190 5193 5196 5199 5202 5206 5210 5215 5219 5224
5255 5251 5244 5238 5233 5227 5221 5215 5210 5205 5200 5195 5191 5187 5183 5180 5178 5176 5174 5171 5169 5168 5169 5169 5169 5170 5170 5171 5172 5174 5176 5177 5179 5181 5183 5185 5188 5190 5193 5197 5201 5205 5209 5214
5247 5242 5236 5230 5224 5217 5212 5206 5201 5196 5191 5187 5182 5179 5175 5173 5171 5168 5166 5164 5163 5163 5163 5163 5163 5163 5164 5164 5165 5167 5168 5170 5172 5173 5175 5177 5180 5183 5185 5188 5192 5196 5201 5206
5235 5230 5224 5219 5213 5208 5202 5197 5192 5187 5183 5178 5174 5171 5168 5165 5162 5160 5158 5156 5156 5158 5158 5156 5156 5157 5158 5158 5159 5160 5161 5163 5165 5167 5168 5171 5174 5176 5178 5181 5185 5189 5193 5198
5225 5220 5214 5209 5204 5198 5193 5189 5184 5179 5175 5170 5166 5163 5160 5157 5154 5152 5150 5149 5149 5149 5148 5149 5150 5151 5151 5152 5152 5153 5154 5156 5157 5159 5161 5163 5166 5169 5172 5175 5179 5183 5187 5191
5217 5211 5205 5200 5194 5189 5184 5180 5175 5171 5167 5162 5159 5156 5153 5150 5147 5144 5143 5144 5144 5141 5141 5142 5143 5144 5145 5146 5147 5147 5148 5149 5150 5152 5153 5156 5159 5162 5165 5169 5172 5176 5180 5184
5207 5202 5197 5191 5185 5181 5176 5171 5167 5163 5159 5155 5151 5148 5145 5143 5141 5138 5137 5135 5135 5134 5135 5136 5136 5137 5139 5140 5141 5141 5141 5142 5143 5145 5146 5149 5151 5155 5158 5162 5165 5169 5173 5177
5200 5194 5188 5183 5177 5173 5167 5163 5159 5155 5151 5147 5144 5141 5139 5136 5134 5132 5131 5129 5127 5127 5128 5128 5129 5131 5133 5133 5133 5134 5135 5135 5137 5138 5140 5142 5145 5148 5151 5155 5158 5162 5166 5170
5191 5186 5180 5174 5169 5164 5161 5157 5152 5148 5144 5141 5138 5134 5131 5129 5128 5125 5122 5121 5120 5121 5121 5121 5123 5124 5125 5125 5126 5127 5128 5129 5131 5132 5134 5137 5139 5142 5145 5148 5152 5156 5160 5163
5182 5177 5171 5166 5162 5159 5154 5149 5144 5141 5138 5135 5132 5128 5125 5122 5120 5118 5115 5114 5114 5114 5114 5114 5115 5116 5117 5117 5119 5120 5121 5123 5125 5127 5129 5131 5134 5137 5140 5143 5146 5150 5154 5158
5174 5169 5164 5159 5154 5150 5146 5142 5138 5135 5132 5129 5126 5122 5119 5116 5113 5111 5109 5108 5107 5108 5107 5108 5108 5109 5109 5111 5112 5114 5115 5117 5119 5121 5123 5126 5129 5132 5135 5138 5142 5145 5149 5153
5165 5160 5156 5151 5147 5142 5138 5134 5131 5127 5124 5121 5118 5115 5112 5109 5107 5105 5103 5102 5102 5101 5101 5102 5102 5103 5103 5105 5106 5108 5110 5112 5114 5116 5119 5121 5124 5127 5130 5133 5137 5140 5144 5148